Fairbanks, AK

11:39 PM AKDT on September 23, 2017 (GMT -0800)
Fairbanks International

Weather History for PAFA - June, 2014

Change the Weather History Date:

Tuesday, June 3, 2014

  Actual Average Record
Temperature  
Mean Temperature 57 °F 56 °F  
Max Temperature 66 °F 68 °F 86 °F (1958)
Min Temperature 47 °F 45 °F 32 °F (1931)
Degree Days  
Heating Degree Days 8 9  
Month to date heating degree days 37 27  
Since 1 June heating degree days 37 27  
Since 1 July heating degree days 12346 13536  
Cooling Degree Days 0 0  
Month to date cooling degree days 0 0  
Year to date cooling degree days 0 1  
Since 1 June cooling degree days 0 0  
Growing Degree Days 6 (Base 50)    
Moisture  
Dew Point 42 °F    
Average Humidity 65    
Maximum Humidity 90    
Minimum Humidity 25    
Precipitation  
Precipitation 0.02 in 0.03 in 0.38 in (1961)
Month to date precipitation 0.06 0.09  
Year to date precipitation 1.15 2.25  
Snow  
Snow 0.00 in 0.00 in T in (1974)
Month to date snowfall 0.0 0.0  
Since 1 June snowfall 0.0 0.0  
Since 1 July snowfall 48.9 65.0  
Snow Depth 0.00 in    
Sea Level Pressure  
Sea Level Pressure 30.24 in    
Wind  
Wind Speed 2 mph (ESE)    
Max Wind Speed 9 mph    
Max Gust Speed -    
Visibility 10 miles    
Events Rain    
T = Trace of Precipitation, MM = Missing Value Source: NWS Daily Summary

Daily Weather History Graph

Daily Weather History Graph

Search for Another Location

Airport or City:

Trip Planner

Search our weather history database for the weather conditions in past years. The results will help you decide how hot, cold, wet, or windy it might be!

Date:

Astronomy

Jun. 03, 2014 Rise Set
Actual Time 3:27 AM AKDT 12:14 AM AKDT
Civil Twilight Sun does not set Sun does not set
Nautical Twilight Sun does not set Sun does not set
Astronomical Twilight Sun does not set Sun does not set
Moon 10:59 AM AKDT (6/3) 1:52 AM AKDT (6/3)
Length of Visible Light 24h 00m
Length of Day
20h 47m
Waxing Crescent, 31% of the Moon is Illuminated
Jun 3
Waxing Crescent
Jun 5
First Quarter
Jun 12
Full
Jun 19
Last Quarter
Jun 27
New

Hourly Weather History & Observations

Time (AKDT) Temp. Dew Point Humidity Pressure Visibility Wind Dir Wind Speed Gust Speed Precip Events Conditions
12:53 AM 46.9 °F 44.1 °F 90% 30.26 in 10.0 mi Calm Calm - 0.00 in Rain Light Rain
1:53 AM 46.9 °F 44.1 °F 90% 30.27 in 10.0 mi NE 3.5 mph - 0.00 in Rain Light Rain
2:53 AM 46.9 °F 44.1 °F 90% 30.27 in 10.0 mi Calm Calm - 0.00 in Rain Light Rain
3:53 AM 46.9 °F 44.1 °F 90% 30.27 in 10.0 mi Calm Calm - 0.00 in Rain Light Rain
4:32 AM 46.9 °F 44.1 °F 90% 30.25 in 10.0 mi ENE 3.5 mph - 0.00 in Rain Light Rain
4:53 AM 46.9 °F 44.1 °F 90% 30.27 in 10.0 mi Calm Calm - 0.00 in Rain Light Rain
5:53 AM 46.9 °F 44.1 °F 90% 30.28 in 10.0 mi ENE 3.5 mph - 0.00 in   Overcast
6:53 AM 48.0 °F 44.1 °F 86% 30.29 in 10.0 mi East 3.5 mph - N/A   Overcast
7:53 AM 48.9 °F 44.1 °F 83% 30.29 in 7.0 mi Calm Calm - N/A   Overcast
8:30 AM 48.9 °F 44.1 °F 83% 30.27 in 7.0 mi Calm Calm - N/A   Overcast
8:53 AM 50.0 °F 44.1 °F 80% 30.29 in 10.0 mi Calm Calm - N/A   Overcast
9:28 AM 50.0 °F 44.1 °F 80% 30.27 in 10.0 mi Calm Calm - N/A   Overcast
9:53 AM 51.1 °F 44.1 °F 77% 30.29 in 10.0 mi Calm Calm - N/A   Mostly Cloudy
10:53 AM 53.1 °F 44.1 °F 71% 30.29 in 10.0 mi SSE 4.6 mph - N/A   Mostly Cloudy
11:53 AM 55.9 °F 44.1 °F 64% 30.28 in 10.0 mi SE 4.6 mph - N/A   Mostly Cloudy
12:53 PM 57.9 °F 42.1 °F 56% 30.27 in 10.0 mi Variable 4.6 mph - N/A   Mostly Cloudy
1:53 PM 57.9 °F 39.0 °F 49% 30.26 in 10.0 mi South 5.8 mph - N/A   Mostly Cloudy
2:53 PM 61.0 °F 36.0 °F 39% 30.24 in 10.0 mi South 6.9 mph - N/A   Mostly Cloudy
3:53 PM 63.0 °F 36.0 °F 37% 30.22 in 10.0 mi Calm Calm - N/A   Mostly Cloudy
4:53 PM 64.0 °F 36.0 °F 35% 30.21 in 10.0 mi South 5.8 mph - N/A   Mostly Cloudy
5:53 PM 64.9 °F 34.0 °F 32% 30.19 in 10.0 mi NW 4.6 mph - N/A   Mostly Cloudy
6:53 PM 63.0 °F 35.1 °F 35% 30.18 in 10.0 mi Variable 3.5 mph - N/A   Mostly Cloudy
7:53 PM 64.0 °F 34.0 °F 33% 30.17 in 10.0 mi South 4.6 mph - N/A   Mostly Cloudy
8:53 PM 60.1 °F 42.1 °F 51% 30.18 in 10.0 mi East 9.2 mph - N/A   Mostly Cloudy
9:53 PM 60.8 °F 42.8 °F 52% 30.16 in 10.0 mi East 5.8 mph - N/A   Scattered Clouds
10:53 PM 57.0 °F 42.1 °F 57% 30.18 in 10.0 mi East 5.8 mph - N/A   Scattered Clouds
11:53 PM 52.0 °F 42.1 °F 69% 30.19 in 10.0 mi NE 3.5 mph - N/A   Scattered Clouds